This demonstration page uses our WeatherBlox Daily Observations layout. Learn more.

Left ArrowRight Arrow

Hourly Observations for January 28, 2017

Temp ( °F °C ) Dew Point ( °F °C ) Humidity (%) Winds ( mph kmh ) Pressure ( in mb ) Visibility ( mi km ) Precip ( " mm )
12:15 am 00:15 Cloudy 36 2 23 -5 60 60 WNW 15 24 29.85 1011 10 16.0934 0 0
12:35 am 00:35 Cloudy 36 2 23 -5 60 60 WNW 13 20 29.83 1010 10 16.0934 0 0
12:55 am 00:55 Cloudy 36 2 23 -5 60 60 W 8 13 29.83 1010 10 16.0934 0 0
1:15 am 01:15 Cloudy 36 2 23 -5 60 60 W 6 9 29.83 1010 10 16.0934 0 0
1:35 am 01:35 Cloudy 36 2 23 -5 60 60 W 7 11 29.83 1010 10 16.0934 0 0
1:55 am 01:55 Cloudy 34 1 23 -5 65 65 W 5 7 29.83 1010 10 16.0934 0 0
2:15 am 02:15 Cloudy 32 0 23 -5 69 69 W 5 7 29.83 1010 10 16.0934 0 0
2:35 am 02:35 Mostly Cloudy 32 0 23 -5 69 69 W 5 7 29.83 1010 10 16.0934 0 0
2:55 am 02:55 Cloudy 32 0 23 -5 69 69 W 6 9 29.83 1010 10 16.0934 0 0
3:15 am 03:15 Cloudy 32 0 23 -5 69 69 WSW 3 6 29.83 1010 10 16.0934 0 0
3:35 am 03:35 Cloudy 32 0 23 -5 69 69 WSW 5 7 29.83 1010 10 16.0934 0 0
3:55 am 03:55 Cloudy 34 1 23 -5 65 65 Calm 29.83 1010 10 16.0934 0 0
4:15 am 04:15 Cloudy 34 1 23 -5 65 65 WSW 5 7 29.83 1010 10 16.0934 0 0
4:35 am 04:35 Cloudy 34 1 23 -5 65 65 W 6 9 29.83 1010 10 16.0934 0 0
4:55 am 04:55 Cloudy 36 2 23 -5 60 60 WSW 6 9 29.8 1009 10 16.0934 0 0
5:15 am 05:15 Cloudy 36 2 23 -5 60 60 WSW 6 9 29.83 1010 10 16.0934 0 0
5:35 am 05:35 Cloudy 36 2 23 -5 60 60 WSW 6 9 29.83 1010 10 16.0934 0 0
5:55 am 05:55 Cloudy 36 2 23 -5 60 60 WSW 5 7 29.83 1010 10 16.0934 0 0
6:15 am 06:15 Cloudy 36 2 23 -5 60 60 WSW 5 7 29.83 1010 10 16.0934 0 0
6:35 am 06:35 Cloudy 36 2 23 -5 60 60 Calm 29.83 1010 10 16.0934 0 0
6:55 am 06:55 Cloudy 34 1 25 -4 70 70 S 5 7 29.83 1010 10 16.0934 0 0
7:15 am 07:15 Cloudy 34 1 25 -4 70 70 S 5 7 29.83 1010 10 16.0934 0 0
7:35 am 07:35 Cloudy 34 1 25 -4 70 70 SSW 6 9 29.83 1010 10 16.0934 0 0
7:55 am 07:55 Cloudy 34 1 25 -4 70 70 SSW 3 6 29.83 1010 10 16.0934 0 0
8:15 am 08:15 Cloudy 34 1 25 -4 70 70 Calm 29.83 1010 10 16.0934 0 0
8:35 am 08:35 Cloudy 34 1 25 -4 70 70 S 5 7 29.83 1010 10 16.0934 0 0
8:55 am 08:55 Cloudy 34 1 27 -3 75 75 SSW 3 6 29.83 1010 10 16.0934 0 0
9:15 am 09:15 Cloudy 36 2 27 -3 70 70 W 3 6 29.83 1010 10 16.0934 0 0
9:35 am 09:35 Cloudy 37 3 25 -4 60 60 W 5 7 29.83 1010 10 16.0934 0 0
9:55 am 09:55 Cloudy 37 3 25 -4 60 60 SW 5 7 29.85 1011 10 16.0934 0 0
10:15 am 10:15 Cloudy 37 3 27 -3 65 65 SSW 6 9 29.85 1011 10 16.0934 0 0
10:35 am 10:35 Cloudy 37 3 27 -3 65 65 SSW 6 9 29.85 1011 10 16.0934 0 0
10:55 am 10:55 Cloudy 37 3 27 -3 65 65 S 7 11 29.83 1010 10 16.0934 0 0
11:15 am 11:15 Cloudy 39 4 27 -3 61 61 WSW 5 7 29.83 1010 10 16.0934 0 0
11:35 am 11:35 Cloudy 41 5 27 -3 57 57 undefined N/A 29.83 1010 10 16.0934 0 0
11:55 am 11:55 Mostly Cloudy 41 5 27 -3 57 57 W 14 22 29.8 1009 10 16.0934 0 0
12:15 pm 12:15 Partly Cloudy 43 6 27 -3 53 53 SW 9 15 29.8 1009 10 16.0934 0 0
12:35 pm 12:35 Sunny 45 7 28 -2 53 53 WSW 6 9 29.8 1009 10 16.0934 0 0
12:55 pm 12:55 Sunny 45 7 27 -3 49 49 WSW 9 15 29.74 1007 10 16.0934 0 0
1:15 pm 13:15 Partly Cloudy 45 7 27 -3 49 49 WSW 7 11 29.74 1007 10 16.0934 0 0
1:35 pm 13:35 Mostly Cloudy 46 8 27 -3 46 46 W 9 15 29.74 1007 10 16.0934 0 0
1:55 pm 13:55 Mostly Cloudy 45 7 27 -3 49 49 W 6 9 29.74 1007 10 16.0934 0 0
2:15 pm 14:15 Mostly Cloudy 46 8 27 -3 46 46 W 12 19 29.71 1006 10 16.0934 0 0
2:35 pm 14:35 Partly Cloudy 46 8 25 -4 43 43 W 9 15 29.71 1006 10 16.0934 0 0
2:55 pm 14:55 Sunny 46 8 25 -4 43 43 WNW 9 15 29.71 1006 10 16.0934 0 0
3:15 pm 15:15 Partly Cloudy 48 9 23 -5 37 37 W 14 22 29.71 1006 10 16.0934 0 0
3:35 pm 15:35 Partly Cloudy 46 8 23 -5 40 40 NW 18 30 29.71 1006 10 16.0934 0 0
3:55 pm 15:55 Sunny 46 8 23 -5 40 40 WNW 13 20 29.71 1006 10 16.0934 0 0
4:15 pm 16:15 Sunny 46 8 23 -5 40 40 W 12 19 29.71 1006 10 16.0934 0 0
4:35 pm 16:35 Sunny 46 8 23 -5 40 40 WNW 10 17 29.71 1006 10 16.0934 0 0
4:55 pm 16:55 Sunny 45 7 23 -5 42 42 WNW 6 9 29.71 1006 10 16.0934 0 0
5:15 pm 17:15 Sunny 43 6 23 -5 46 46 Calm 29.74 1007 10 16.0934 0 0
5:35 pm 17:35 Clear 43 6 23 -5 46 46 NW 5 7 29.77 1008 10 16.0934 0 0
5:55 pm 17:55 Clear 41 5 23 -5 49 49 NNW 5 7 29.77 1008 10 16.0934 0 0
6:15 pm 18:15 Clear 41 5 23 -5 49 49 NNW 6 9 29.77 1008 10 16.0934 0 0
6:35 pm 18:35 Clear 39 4 23 -5 52 52 NW 9 15 29.8 1009 10 16.0934 0 0
6:55 pm 18:55 Partly Cloudy 41 5 25 -4 53 53 NW 9 15 29.8 1009 10 16.0934 0 0
7:15 pm 19:15 Cloudy 41 5 25 -4 53 53 NW 10 17 29.8 1009 10 16.0934 0 0
7:35 pm 19:35 Mostly Cloudy 37 3 25 -4 60 60 NNW 7 11 29.83 1010 10 16.0934 0 0
7:55 pm 19:55 Mostly Cloudy 36 2 25 -4 65 65 WNW 7 11 29.83 1010 10 16.0934 0 0
8:15 pm 20:15 Partly Cloudy 37 3 25 -4 60 60 W 6 9 29.83 1010 10 16.0934 0 0
8:35 pm 20:35 Partly Cloudy 36 2 25 -4 65 65 W 5 7 29.83 1010 10 16.0934 0 0
8:55 pm 20:55 Partly Cloudy 37 3 23 -5 56 56 SW 5 7 29.8 1009 10 16.0934 0 0
9:15 pm 21:15 Partly Cloudy 37 3 23 -5 56 56 WSW 5 7 29.8 1009 10 16.0934 0 0
9:35 pm 21:35 Partly Cloudy 34 1 25 -4 70 70 W 3 6 29.8 1009 10 16.0934 0 0
9:55 pm 21:55 Mostly Cloudy 37 3 23 -5 56 56 SSW 5 7 29.8 1009 10 16.0934 0 0
10:15 pm 22:15 Cloudy 36 2 23 -5 60 60 S 6 9 29.8 1009 10 16.0934 0 0
10:35 pm 22:35 Cloudy 36 2 23 -5 60 60 SSW 6 9 29.77 1008 10 16.0934 0 0
10:55 pm 22:55 Cloudy 32 0 25 -4 75 75 SSW 6 9 29.8 1009 10 16.0934 0 0
11:15 pm 23:15 Cloudy 36 2 25 -4 65 65 SW 3 6 29.8 1009 10 16.0934 0 0
11:35 pm 23:35 Cloudy 32 0 28 -2 87 87 SW 3 6 29.77 1008 10 16.0934 0 0
11:55 pm 23:55 Cloudy 34 1 27 -3 75 75 SW 3 6 29.77 1008 10 16.0934 0 0

Powered by AerisWeather